Lübeck Blankensee Airport

Jump to: basic info | weather | frequencies | runways | comments

Related pages: nearby airports | nearby navaids | notams | map

Basic information (top)

Codes: LBC EDHL
Location: lon 53.805401, lat 10.719200, elev 53 ft / 16 m msl
Status: medium_airport
Scheduled airline service: yes
Links: Wikipedia Mobile

Weather (top)

Current conditions (rec'd 2015/03/29 19:50Z):

EDHL 291950Z 17008KT 9999 -RA FEW025 BKN035 08/07 Q0981 RERA RMK ATIS ECH

Airport forecast for Hamburg Airport 28nm (52km) WSW (rec'd 2015/03/29 00:41Z):

TAF COR EDDH 292300Z 3000/3106 27015G25KT 9999 BKN025 
      TEMPO 3000/3015 29020G35KT 4000 SHRAGS BKN012CB PROB30 
      TEMPO 3000/3015 29025G40KT TSRAGS 
      BECMG 3018/3021 18012KT 
      TEMPO 3100/3106 3000 RADZ BKN008 PROB30 
      TEMPO 3100/3106 RASN 
      BECMG 3103/3106 24015G25KT

Frequencies (top)

Verify before use: may be inaccurate or out of date.

AFIS: 125.1 MHz (BREMEN INFO)
ATIS: 119.925 MHz (ATIS)
GND: 121.775 MHz (GND)
INFO: 128.7 MHz (INFO)
RDR: 124.225 MHz (BREMEN RADAR)
TWR: 128.7 MHz (TWR)

Runways (top)

07/25: 6,896 x 197 ft (2,102 x 60 m) — paved — lighted — threshold 07 displaced 984 ft (300 m)

Latest comments (top)

No comments yet for Lübeck Blankensee Airport

More... (top)

See also NOTAMs and nearby airports and navaids, or visit the Lübeck Blankensee Airport page at the main OurAirports website..